Printer-friendly version
Follow the MPC on Twitter Follow the MPC on Facebook The MPC blog
Minor Planet Center

MPEC 2010-N37 : 2010 MZ112

The following Minor Planet Electronic Circular may be linked-to from your own Web pages, but must not otherwise be redistributed electronically.

A form allowing access to any MPEC is at the bottom of this page.


Read MPEC 2010-N36 Read MPEC 2010-N38


M.P.E.C. 2010-N37                                Issued 2010 July 8, 18:46 UT

     The Minor Planet Electronic Circulars contain information on unusual
         minor planets and routine data on comets.  They are published
   on behalf of Commission 20 of the International Astronomical Union by the
          Minor Planet Center, Smithsonian Astrophysical Observatory,
                          Cambridge, MA 02138, U.S.A.

             Prepared using the Tamkin Foundation Computer Network

                              MPC@CFA.HARVARD.EDU
       URL http://www.minorplanetcenter.org/iau/mpc.html  ISSN 1523-6714

                                  2010 MZ112

Observations:
     K10MB2Z* S2010 06 23.95574 10 07 51.35 -53 50 21.6          21   R EN037C51
     K10MB2Z  s2010 06 23.95574 1 - 3683.9364 -  706.1744 - 5808.7286   EN037C51
     K10MB2Z  S2010 06 24.28656 10 07 50.86 -53 37 20.0                 EN037C51
     K10MB2Z  s2010 06 24.28656 1 - 3709.8653 -  724.5072 - 5789.7161   EN037C51
     K10MB2Z  S2010 06 24.35265 10 07 50.80 -53 34 43.8                 EN037C51
     K10MB2Z  s2010 06 24.35265 1 - 3673.6293 -  731.9547 - 5811.9436   EN037C51
     K10MB2Z  S2010 06 24.48495 10 07 50.78 -53 29 30.7                 EN037C51
     K10MB2Z  s2010 06 24.48495 1 - 3670.2710 -  740.0541 - 5813.2126   EN037C51
     K10MB2Z  S2010 06 24.55117 10 07 50.71 -53 26 53.4                 EN037C51
     K10MB2Z  s2010 06 24.55117 1 - 3702.4799 -  741.2080 - 5792.5091   EN037C51
     K10MB2Z  S2010 06 24.61726 10 07 50.73 -53 24 16.6                 EN037C51
     K10MB2Z  s2010 06 24.61726 1 - 3665.0420 -  748.7789 - 5815.3248   EN037C51
     K10MB2Z  S2010 06 24.68347 10 07 50.78 -53 21 40.1                 EN037C51
     K10MB2Z  s2010 06 24.68347 1 - 3698.8451 -  750.1705 - 5793.7689   EN037C51

Observer details:
C51 WISE.  Measurers A. Mainzer, E. Wright, J. Bauer, T. Grav, J. Dailey,
    J. Masiero, R. Cutri, R. McMillan, R. Walker.

Orbital elements:
2010 MZ112                                               Earth MOID = 0.2209 AU
Epoch 2010 June 13.0 TT = JDT 2455360.5                 MPC
M 327.88247              (2000.0)            P               Q
n   0.41215949     Peri.   49.68530     +0.92193707     -0.18317671
a   1.7882402      Node   317.40469     -0.10997098     +0.72106875
e   0.7285476      Incl.   30.28206     +0.37140062     +0.66821115
P   2.39           H   19.8           G   0.15
From 7 observations 2010 June 23-24.

Ephemeris:
2010 MZ112               a,e,i = 1.79, 0.73, 30                  q = 0.4854
Date    TT    R. A. (2000) Decl.     Delta      r     Elong.  Phase     V
2010 07 03    10 09.54   -47 40.4    0.628    1.138    84.0    62.7    21.3
2010 07 08    10 11.64   -43 58.0    0.596    1.073    78.7    68.3    21.2
2010 07 13    10 14.08   -39 54.8    0.564    1.007    72.9    74.7    21.2
2010 07 18    10 16.44   -35 20.2    0.530    0.940    66.5    82.4    21.2
2010 07 23    10 18.23   -29 58.8    0.497    0.872    59.1    91.6    21.2

Sonia Keys                   (C) Copyright 2010 MPC           M.P.E.C. 2010-N37

Read MPEC 2010-N36 Read MPEC 2010-N38


MPEC number:

Enter an MPEC number in one of the following forms:

  • 1997-B01 (the full form)
  • J97B01 (the packed version of the full form)
  • B01 (the abbreviated form)

Valid HTML 4.01!